COSMOS 2251 DEB, 34327

Orbit data source: Space-Track

COSMOS 2251 DEB, 34327 is space debris in LEO originally from a launch on Wed, 16 Jun 1993 UTC launched from the Plesetsk Missile And Space Complex (PKMTR). The debris from Iridium 33, an American commercial communications satellite, has been tracked extensively since its accidental collision with the defunct Russian satellite Cosmos 2251 in 2009. This event, occurring at high speed in low Earth orbit (LEO), generated thousands of pieces of space debris, significantly increasing the risk of further collisions. The Iridium 33 debris cloud has impacted space traffic management and orbital debris mitigation strategies, making it a subject of ongoing study in space situational awareness.

Loading next visibility...
Identifier
34327, 1993-036NZ
Orbit
LEO
Country
Flag of CISCIS
Related business
Manufacturer
Unknown
Mission
Spacecraft
Bus & Motor
Unknown
Mass
Unknown
Launch date (UTC)
1993-06-16 (33 years ago)
Launch vehicle
Unknown
Launch site
Plesetsk Missile And Space Complex (PKMTR)
Object type
Payload
Rocket body
Debris
Shape & HBR
Unknown shape, 0.1 m
Radar Cross Section
Small (<0.1 m²)

Expand to show TLE details & history
Last TLE update: 15 hours ago

TLE from 15 hours ago
0 COSMOS 2251 DEB
1 34327U 93036NZ  25351.94916451  .00008911  00000-0  93341-3 0  9997
2 34327  73.9927 161.4457 0033134 336.7826 144.6355 14.89293767895854
Epoch: 2025-12-17T22:46Z
TLE epoch observation values (Epoch: 2025-12-17T22:46:47.813Z)
Latitude
55.03343°
Longitude
-111.14429°
Altitude
627.797 km
Speed
7.54 km/s
True Right ascension
21h 09m 27s
True Declination
54° 52' 07"
Sunlit
Object was in daylight at epoch
Visualization orbit readout
Latitude
Unknown
Longitude
Unknown
Altitude
Unknown
Speed
Unknown
Apparent Right ascension
Unknown
Apparent Declination
Unknown
Sunlit
N/A
Visualization observer readout
Local Sidereal Time
12:23:39
Azimuth
Unknown
Elevation
Unknown
Doppler factor
Unknown
Orbital elements
Apogee altitude
620.824 km
Perigee altitude
574.596 km
Semi-major axis
6,975.847 km
Eccentricity
0.00331
Inclination
73.9927°
RAAN
161.4457°
Arg. of periapsis
336.7826°
True anomaly
144.85451°
Mean anomaly
144.6355°
Eccentric anomaly
144.74508°
Mean motion
3.72518 °/min
Orbital period
96.64 mins
BSTAR
0.00093341
Loading maneuver chart data...
Computing Atmospheric mass density...

Documentation

Showing up to 5 results
|